Lapse_Rate
8.4 7.8 7.9 8.6 8.4 7.8 8.2 8.5 8.5 8.4 8.3 8.7 8.2 7.8 8.2 7.9 7.6 8.2 7.7 7.8 8.1 7.8 7.9 8.0 8.0 8.5 8.3 8.1 8.1 8.2 8.1 8.1 8.2 8.2 8.3 8.0 8.0 8.0 7.9 7.8 7.9 7.8 7.7 7.6
6.9 7.4 7.5 8.0 8.2 8.1 8.2 8.2 8.0 8.3 8.1 8.4 8.3 7.7 7.0 7.2 7.3 7.5 7.7 7.8 8.0 8.2 7.9 7.8 7.6 7.7 8.3 8.5 8.4 8.4 8.4 8.4 8.5 8.3 8.2 8.1 8.1 8.1 7.9 7.7 7.8 7.8 7.8 7.7
6.5 7.1 7.4 7.5 7.5 7.9 8.0 8.1 8.2 8.5 9.0 8.4 7.7 7.1 6.9 6.9 6.5 6.3 6.6 7.7 7.9 8.3 8.1 8.1 8.1 7.4 8.0 8.3 8.5 8.3 8.3 8.4 8.4 8.5 8.5 8.3 8.4 8.4 8.3 8.2 8.1 8.2 8.1 8.1
6.7 6.8 6.7 8.0 7.8 8.0 8.1 8.3 8.5 8.3 8.1 7.5 7.2 6.9 7.0 6.9 6.2 5.8 6.5 7.4 7.7 7.7 8.1 8.2 8.0 8.1 8.2 8.1 8.2 8.4 8.4 8.6 8.7 8.6 8.6 8.5 8.5 8.5 8.5 8.3 8.2 8.3 8.3 8.2
7.5 7.6 8.1 8.4 8.1 8.1 8.3 8.7 8.2 8.1 7.3 7.2 6.8 6.7 7.5 6.1 6.4 6.6 6.1 6.6 7.2 7.3 7.5 7.8 7.9 7.9 8.0 8.0 8.0 8.2 8.5 8.5 8.7 8.7 8.7 8.6 8.4 8.4 8.5 8.4 8.3 8.3 8.3 8.4
7.4 7.8 8.2 8.6 8.5 7.8 7.9 8.6 8.0 7.0 7.1 6.9 6.8 7.2 7.6 7.0 6.9 6.7 6.6 6.8 6.9 7.1 7.0 7.1 7.5 7.6 7.6 7.6 7.8 7.9 8.2 8.7 8.7 8.7 8.7 8.6 8.6 8.7 8.6 8.5 8.4 8.6 8.4 8.3
7.5 7.9 8.0 8.2 7.8 7.3 7.9 8.2 6.6 6.8 6.7 6.5 6.8 6.8 6.8 6.5 6.7 6.4 6.4 6.5 6.6 7.0 6.9 6.9 7.3 7.8 7.6 7.8 7.8 7.8 7.9 8.2 8.7 8.6 8.6 8.6 8.7 8.5 8.5 8.6 8.6 8.3 8.3 8.4
7.3 7.6 7.5 8.0 7.6 7.5 7.0 6.6 6.3 6.5 6.7 6.9 6.6 6.6 6.6 6.4 6.6 6.7 6.6 6.5 6.7 6.9 7.2 7.3 7.1 7.5 7.7 8.0 7.9 7.7 7.9 8.1 8.2 8.5 8.7 8.8 8.7 8.7 8.0 7.9 8.0 8.2 8.1 7.9
7.7 7.7 7.7 7.9 7.4 6.7 7.1 7.0 7.2 7.2 7.0 6.8 6.7 6.6 6.3 6.1 6.3 6.8 6.8 6.7 6.6 6.6 6.7 7.0 6.8 7.2 7.7 7.7 8.0 8.1 8.2 8.2 8.1 8.2 8.7 8.7 8.6 8.6 8.3 8.1 8.1 8.0 7.6 7.2
7.4 8.0 7.2 7.4 6.8 7.0 7.1 7.1 7.2 7.2 7.0 6.7 6.6 6.6 6.6 6.6 6.6 6.8 6.8 6.8 6.7 6.6 6.6 6.4 6.4 6.9 7.4 7.8 8.0 8.1 8.4 8.5 8.2 8.2 8.6 8.6 8.2 7.9 8.0 7.9 7.4 7.1 6.8 6.1
7.6 7.7 7.7 7.5 6.9 7.0 7.1 7.0 7.0 6.8 6.6 6.6 6.5 6.5 6.6 6.7 6.7 6.8 6.8 6.7 6.7 6.7 6.7 7.0 6.4 6.9 7.4 7.8 7.8 8.0 7.9 8.0 8.0 8.1 8.0 7.6 7.6 7.3 7.2 7.4 7.3 6.8 6.4 6.4
7.5 7.0 7.3 7.0 6.2 6.8 6.9 6.7 6.7 6.8 6.6 6.5 6.6 6.6 6.6 6.6 6.6 6.7 6.8 6.7 6.6 6.8 6.6 6.5 6.6 6.3 6.7 6.9 6.7 6.6 6.8 7.1 7.5 7.8 7.0 6.8 7.4 7.2 6.9 6.6 6.5 6.3 6.2 5.8
6.7 6.9 6.8 6.7 6.4 6.8 6.7 6.5 6.6 6.5 6.4 6.5 6.5 6.4 6.4 6.5 6.5 6.6 6.6 6.4 6.4 6.7 6.8 6.3 6.1 6.0 6.0 6.8 5.7 6.3 6.4 6.8 6.5 7.0 6.2 6.6 6.7 6.6 6.7 6.6 6.3 5.9 5.8 5.8
6.6 6.6 6.3 6.6 6.3 6.3 6.4 6.4 6.5 6.6 6.6 6.5 6.4 6.3 6.3 6.4 6.5 6.5 6.4 6.6 6.5 6.5 6.6 5.9 5.9 5.4 5.4 6.0 4.4 4.8 5.0 6.3 6.6 6.5 6.2 6.1 4.1 5.4 5.5 5.0 5.0 4.8 4.5 4.3
6.5 6.5 6.0 6.2 6.4 6.5 6.5 6.7 6.6 6.7 6.4 6.3 6.5 6.6 6.7 6.6 6.7 6.7 6.8 6.9 6.8 6.7 6.0 5.8 6.1 5.5 5.4 5.4 4.4 5.3 4.7 4.8 5.1 5.2 5.1 5.0 5.1 5.1 4.8 4.8 4.7 4.6 4.3 4.5
6.4 6.2 6.4 6.5 6.4 6.4 6.5 6.7 7.1 7.0 6.6 6.7 6.7 6.4 6.4 6.6 6.8 6.9 6.9 6.9 6.8 6.5 5.6 5.6 5.9 5.5 5.3 4.9 4.8 4.6 5.1 5.2 5.0 4.6 4.1 4.5 4.3 4.3 4.6 4.3 4.4 4.4 4.4 4.3
6.4 6.2 6.6 6.4 6.5 6.6 6.8 6.8 6.8 6.8 6.6 6.5 6.2 6.1 6.3 6.3 6.4 6.4 6.4 6.3 6.0 5.4 5.3 5.0 5.0 5.1 4.9 4.9 4.9 4.5 4.4 4.6 4.5 4.3 4.2 4.1 4.4 4.5 4.3 4.3 4.2 4.0 3.9 3.9
6.4 6.4 6.4 6.5 6.4 6.4 6.5 6.3 6.2 6.3 6.4 6.5 6.2 6.1 6.2 6.2 5.9 5.6 5.4 5.2 5.0 4.9 4.8 4.7 4.8 4.8 4.6 4.7 4.6 4.6 4.3 4.1 4.1 4.2 4.1 4.0 3.8 3.9 4.0 3.9 3.8 3.7 3.7 3.8
6.5 6.5 6.5 6.3 6.2 6.2 6.0 5.7 5.8 5.9 5.9 5.7 5.6 5.5 5.3 5.0 4.8 4.8 4.7 4.5 4.4 4.4 4.4 4.5 4.4 4.4 4.3 4.1 3.9 3.9 3.9 4.0 3.8 3.7 3.7 3.8 3.8 3.7 3.8 3.9 3.9 3.9 3.7 3.5
6.3 6.2 6.1 5.9 5.7 5.7 5.8 5.6 5.3 5.2 5.2 5.1 4.8 4.5 4.3 4.3 4.4 4.3 4.4 4.2 4.1 4.2 4.2 4.1 4.1 4.0 3.9 3.7 3.6 3.7 3.9 3.9 3.8 3.6 3.5 3.4 3.4 3.4 3.3 3.2 3.2 3.2 3.1 3.1
5.9 5.7 5.6 5.4 5.2 5.0 4.9 4.9 4.6 4.4 4.3 4.2 4.1 4.0 3.9 4.0 4.0 4.0 4.1 4.1 4.2 4.2 4.1 4.0 4.1 4.2 4.0 3.9 3.8 3.6 3.6 3.5 3.4 3.4 3.3 3.1 3.0 3.0 3.1 3.2 3.1 3.0 3.0 2.9
5.1 5.0 4.8 4.5 4.5 4.5 4.5 4.3 4.2 4.2 4.1 4.0 4.0 4.1 4.2 4.2 4.2 4.2 4.3 4.2 4.2 4.1 4.1 4.1 4.1 4.1 3.9 3.8 3.8 3.6 3.4 3.5 3.4 3.3 3.2 3.1 2.9 2.9 2.9 2.9 2.9 2.8 2.7 2.6
4.6 4.5 4.3 4.2 4.2 4.2 4.2 4.2 4.2 4.4 4.5 4.5 4.4 4.4 4.5 4.5 4.4 4.2 4.2 4.1 4.0 4.0 4.0 3.9 3.8 3.7 3.7 3.5 3.2 3.1 3.1 3.1 3.0 2.9 2.8 2.8 2.8 2.7 2.7 2.7 2.6 2.5 2.6 2.7
4.4 4.3 4.1 4.1 4.2 4.3 4.4 4.3 4.4 4.6 4.6 4.5 4.4 4.4 4.3 4.2 4.1 4.0 3.9 3.8 3.7 3.7 3.6 3.5 3.4 3.2 3.0 2.9 2.9 2.9 2.8 2.8 2.7 2.6 2.6 2.7 2.8 2.9 3.1 3.2 3.3 3.5 3.8 4.1
4.1 4.1 4.1 4.2 4.4 4.6 4.7 4.7 4.6 4.5 4.4 4.4 4.3 4.1 4.0 3.9 3.8 3.7 3.6 3.5 3.5 3.4 3.3 3.1 3.1 3.0 3.1 3.1 3.1 3.0 3.0 3.0 3.0 3.1 3.2 3.5 3.7 4.0 4.2 4.4 4.5 4.4 4.4 4.3
4.3 4.5 4.5 4.6 4.6 4.6 4.6 4.4 4.3 4.2 4.1 4.0 3.9 3.8 3.7 3.6 3.5 3.4 3.3 3.2 3.2 3.2 3.3 3.4 3.5 3.6 3.7 3.7 3.8 3.8 4.0 4.2 4.4 4.5 4.6 4.7 4.6 4.6 4.5 4.5 4.4 4.3 4.3 4.3
4.5 4.5 4.5 4.4 4.3 4.3 4.2 4.1 4.0 3.9 3.7 3.7 3.6 3.5 3.5 3.5 3.5 3.6 3.7 3.9 4.1 4.2 4.3 4.5 4.6 4.7 4.8 4.9 4.9 4.9 4.9 4.8 4.8 4.8 4.7 4.6 4.5 4.4 4.4 4.4 4.4 4.4 4.5 4.5
Wind_Speed
9 5 5 6 14 11 12 12 10 12 10 8 6 8 11 11 12 14 14 15 16 17 14 13 11 14 17 19 19 20 21 21 23 22 20 20 19 20 19 20 19 20 20 20
8 6 6 7 9 11 13 12 12 14 14 13 12 5 8 10 13 15 16 16 17 18 20 17 18 12 15 17 18 19 20 21 20 18 20 20 20 20 19 19 19 19 20 20
4 7 8 8 14 14 13 14 13 13 9 9 6 6 9 13 14 14 14 18 18 17 16 17 17 15 12 15 16 18 20 21 20 19 20 21 20 20 21 20 18 20 19 19
5 5 4 6 5 3 12 13 11 7 4 4 5 5 8 11 9 13 14 17 18 16 17 17 19 19 17 14 16 18 20 19 19 19 20 19 19 20 19 17 19 17 17 17
5 7 10 5 3 9 7 7 3 2 3 3 5 7 8 13 11 13 14 14 16 18 19 17 17 18 19 18 15 18 20 19 20 19 19 19 20 20 17 15 15 14 12 13
5 11 11 5 3 2 3 7 11 5 4 7 9 6 6 13 12 14 16 15 16 18 18 18 18 20 21 18 16 17 17 18 17 18 18 18 16 15 13 13 7 7 8 7
11 8 6 8 9 0 11 5 9 6 7 10 8 9 10 10 11 12 15 17 17 16 16 17 19 19 19 19 19 18 17 15 14 16 15 15 14 10 8 10 10 9 11 9
13 10 13 8 3 7 8 4 8 7 9 9 10 11 8 9 12 13 16 18 18 15 15 15 17 18 19 20 15 13 9 5 9 8 7 9 13 10 10 10 12 10 11 9
11 9 3 3 7 8 7 7 8 9 10 10 12 14 12 10 13 14 15 15 16 14 14 13 16 16 18 17 14 10 5 7 10 11 10 9 10 10 9 9 9 9 7 8
1 7 9 5 8 8 9 9 10 11 12 12 12 12 12 12 12 13 14 15 16 16 14 14 14 16 16 14 11 7 8 9 9 12 12 11 9 7 7 7 7 7 9 9
8 9 7 7 8 8 9 10 12 13 12 13 13 12 12 11 13 13 14 14 14 14 14 14 14 14 15 15 9 7 9 10 12 12 14 13 13 9 9 10 9 9 8 9
4 9 8 8 9 10 11 13 13 14 14 13 12 12 13 11 11 11 11 13 13 14 15 15 15 14 14 14 12 7 10 8 8 12 11 10 13 16 29 29 30 29 26 18
3 8 8 10 12 12 10 11 11 11 12 13 12 11 12 9 11 11 11 13 13 13 14 13 15 15 15 12 11 9 9 10 9 14 11 9 11 14 15 21 31 29 29 28
8 10 2 10 6 8 9 9 7 7 9 11 11 11 9 9 10 12 12 12 12 13 14 13 15 16 14 13 11 11 10 15 12 11 10 11 7 11 11 12 13 13 21 20
7 6 5 6 5 6 7 8 6 8 8 9 10 10 10 11 12 12 11 10 12 14 15 14 16 17 14 12 13 13 9 10 11 11 11 12 9 12 11 12 11 10 9 12
10 7 3 4 5 7 7 7 5 7 8 9 10 10 11 12 12 13 14 15 16 15 16 15 16 14 13 13 14 12 12 19 15 10 10 10 8 11 11 10 10 9 8 7
9 5 8 6 6 7 8 7 7 7 8 9 10 9 10 12 13 14 14 14 15 15 15 15 15 14 14 13 13 10 8 10 15 11 11 10 10 11 10 10 10 9 8 9
6 6 6 6 6 6 8 9 9 10 10 11 12 12 12 12 12 12 12 11 13 15 16 14 13 14 15 14 13 10 9 9 10 10 10 10 10 10 10 9 9 8 8 9
9 8 8 9 9 9 10 10 11 11 11 11 12 12 12 12 11 12 12 13 14 15 14 12 16 16 15 16 12 9 9 11 10 9 10 11 9 9 8 9 9 9 8 7
10 10 12 13 12 11 12 11 12 12 11 11 11 12 12 11 10 11 13 16 13 10 13 15 14 14 14 14 13 9 10 10 10 10 9 9 9 8 8 10 9 8 8 7
12 12 13 13 13 13 12 11 11 12 12 11 12 12 12 11 13 10 11 10 13 12 13 15 13 10 10 10 11 10 10 10 9 9 8 8 8 8 8 8 7 7 7 6
10 11 12 12 12 13 12 11 12 11 11 10 8 7 8 9 10 12 12 10 8 12 9 9 10 14 10 11 9 9 9 9 8 7 7 7 7 6 7 7 7 6 6 6
10 11 11 11 11 12 11 11 10 11 11 11 10 10 10 8 8 7 7 11 8 11 9 9 11 11 11 8 7 8 8 9 8 7 7 7 7 6 6 6 5 5 5 5
10 10 10 8 8 9 10 9 10 10 9 9 9 9 7 5 6 7 6 7 8 9 9 8 9 10 9 7 7 8 8 7 6 6 6 7 5 5 5 5 4 4 4 4
8 7 7 7 7 6 8 7 7 7 7 8 8 8 9 7 6 6 5 5 8 7 7 8 8 9 7 7 7 7 6 6 6 6 6 5 5 4 5 5 5 5 5 4
7 6 6 7 5 4 4 3 4 4 4 4 5 4 5 4 4 4 4 5 6 6 6 6 6 6 6 6 6 6 6 5 6 4 4 4 4 4 4 5 5 4 4 5
5 4 5 5 5 5 5 5 4 4 4 4 4 3 4 4 4 4 4 5 5 5 5 5 5 6 6 6 5 5 5 4 4 5 4 4 4 5 4 5 6 6 6 6
Wind_Direction
247 323 311 250 191 203 225 232 255 242 246 266 283 282 299 335 335 332 332 341 339 331 329 324 222 228 222 223 213 211 215 212 215 210 211 214 217 216 216 217 219 218 220 224
279 239 255 251 241 239 229 243 242 253 265 277 272 332 308 311 316 319 327 344 341 334 331 327 317 260 231 230 223 211 217 222 218 214 210 214 215 214 216 218 220 221 221 223
265 267 294 262 241 236 237 239 239 244 258 16 345 319 304 302 314 315 334 335 333 328 324 318 311 314 270 253 227 223 218 223 222 216 214 216 213 213 215 216 215 221 223 222
219 199 224 238 54 239 239 247 250 267 305 354 335 312 299 287 0 352 336 331 328 331 332 325 316 309 299 277 255 229 225 223 222 218 219 213 213 216 217 213 214 215 220 222
249 250 272 233 281 235 224 243 139 170 79 30 357 307 265 45 16 343 337 340 333 333 329 328 319 306 293 285 275 249 229 225 220 216 216 215 214 213 211 212 212 214 221 226
205 247 254 277 122 327 253 235 108 59 22 352 350 296 347 5 354 338 339 340 340 331 332 337 338 330 317 294 274 263 251 227 222 217 214 216 215 211 206 203 175 122 89 73
233 246 261 263 155 31 223 105 72 15 3 350 322 328 325 323 329 340 338 343 342 343 342 347 344 334 318 300 286 274 265 255 226 224 213 208 205 203 127 115 100 83 80 64
228 235 241 257 158 245 49 34 27 8 15 346 321 307 311 339 320 340 343 347 352 344 347 356 355 345 333 317 339 337 345 24 50 44 61 92 112 110 110 114 107 100 96 84
194 218 159 110 83 66 26 6 13 9 358 357 348 347 333 323 339 349 351 350 354 349 348 1 1 356 338 331 337 345 19 52 71 75 72 79 97 101 101 105 107 112 111 104
174 198 225 125 83 58 22 6 6 3 352 345 346 340 350 340 354 351 352 355 348 351 351 354 14 357 343 335 345 35 55 61 62 72 71 65 66 68 85 96 107 110 110 102
236 251 272 166 79 44 1 355 353 355 350 348 346 345 350 349 4 2 359 358 353 356 354 7 18 8 355 345 5 43 65 69 72 68 65 67 61 61 72 61 88 98 91 93
256 41 348 51 22 35 4 7 0 351 355 360 358 354 2 20 13 9 7 8 9 10 15 5 24 13 3 9 5 30 64 60 71 86 76 76 84 78 69 76 78 83 84 86
51 359 350 338 37 33 14 6 5 356 8 0 5 9 21 26 25 20 20 25 26 19 16 10 33 21 2 31 14 43 62 70 75 76 79 73 84 87 87 72 73 74 83 87
23 350 72 30 359 11 355 3 3 18 27 31 14 26 36 40 38 33 31 26 36 32 29 15 35 29 15 5 45 40 49 70 73 86 83 86 67 84 89 89 85 72 67 78
12 343 314 350 25 12 7 8 22 40 40 41 47 40 45 53 54 48 40 34 46 43 34 19 32 32 19 32 36 47 40 53 60 67 72 72 83 83 78 81 82 86 82 76
329 318 18 6 5 10 15 18 44 48 50 56 64 63 66 70 66 60 51 45 46 41 33 27 26 23 25 34 40 39 45 50 55 56 66 69 74 75 76 80 78 72 66 80
350 29 2 10 25 24 33 39 54 64 74 76 72 80 82 75 66 59 55 50 47 43 39 28 26 20 28 34 45 43 45 49 55 56 60 68 70 76 81 81 80 76 66 56
37 37 31 24 47 74 68 64 68 75 78 80 78 72 66 61 59 54 49 46 50 46 36 29 27 30 31 35 38 46 49 51 52 53 57 64 71 74 79 85 89 91 88 68
41 61 61 63 71 84 85 81 78 79 79 80 80 75 72 66 61 56 48 45 44 39 23 25 33 39 35 32 45 47 55 56 59 62 66 63 60 65 73 76 75 72 69 64
74 74 74 73 70 80 82 77 79 73 68 74 74 71 67 57 60 65 60 55 43 38 33 18 35 35 40 35 38 48 53 62 64 60 44 56 65 73 75 60 66 69 69 66
83 80 80 80 77 74 74 76 77 74 70 71 77 74 69 60 43 34 56 53 34 33 38 41 32 33 36 31 43 44 48 53 54 54 55 58 60 59 60 63 61 60 61 56
82 80 78 77 76 74 68 71 72 73 71 72 77 85 88 83 83 68 45 46 46 31 42 40 37 30 31 41 49 49 50 52 53 53 53 54 56 58 56 56 55 53 50 44
87 85 83 81 82 82 78 73 72 74 74 69 67 66 61 56 39 46 52 32 38 27 46 43 27 29 39 44 51 56 55 54 52 48 48 47 43 46 50 33 42 41 34 19
92 90 93 101 109 96 88 90 89 87 87 79 59 31 38 70 61 59 68 58 46 63 53 38 29 27 40 45 44 44 38 39 42 40 54 38 39 41 37 31 21 13 11 2
95 103 109 106 98 95 100 105 104 96 86 75 67 67 59 50 56 45 38 60 36 26 53 43 31 32 35 40 33 30 39 42 18 20 23 23 18 15 11 12 1 2 339 344
84 81 76 58 63 73 77 68 70 73 88 88 72 63 61 56 64 57 75 44 42 33 32 44 27 9 32 29 23 19 8 19 4 26 347 4 1 354 357 353 340 340 344 343
98 111 104 82 63 46 32 34 66 68 57 63 75 57 61 61 57 37 35 26 31 22 28 21 26 21 4 352 7 358 350 355 48 352 338 345 340 342 347 338 334 332 326 323